Location: Breteuil
(49.6341°N, 2.2956°E)
Time: 01:07:25
(UTC+02:00)

ISS - Visible Passes

Search period start: 16 September 2024 00:00
Search period end: 26 September 2024 00:00
Orbit: 414 x 424 km, 51.6° (Epoch: 15 September)

Date Brightness Start Highest point End Pass type
(mag) Time Alt. Az. Time Alt. Az. Time Alt. Az.
16 Sep -3.6 20:40:11 10° SW 20:43:28 56° SSE 20:46:47 10° ENE visible
16 Sep -3.2 22:16:57 10° W 22:20:00 58° NW 22:20:00 58° NW visible
17 Sep -3.6 21:29:14 10° W 21:32:36 70° N 21:34:11 28° ENE visible
17 Sep -0.9 23:06:14 10° WNW 23:07:07 17° WNW 23:07:07 17° WNW visible
18 Sep -3.7 20:41:29 10° WSW 20:44:51 84° NNW 20:48:14 10° ENE visible
18 Sep -2.9 22:18:28 10° WNW 22:21:12 49° NW 22:21:12 49° NW visible
19 Sep -3.4 21:30:39 10° W 21:33:59 59° N 21:35:13 34° ENE visible
19 Sep -0.7 23:07:33 10° WNW 23:08:09 14° WNW 23:08:09 14° WNW visible
20 Sep -3.4 20:42:47 10° W 20:46:07 62° N 20:49:09 12° ENE visible
20 Sep -2.5 22:19:44 10° WNW 22:22:05 42° WNW 22:22:05 42° WNW visible
21 Sep -3.6 21:31:52 10° WNW 21:35:12 65° N 21:35:59 46° ENE visible
21 Sep -0.4 23:08:42 10° WNW 23:08:54 11° WNW 23:08:54 11° WNW visible
22 Sep -3.4 20:43:55 10° WNW 20:47:14 59° N 20:49:50 15° E visible
22 Sep -2.1 22:20:45 10° WNW 22:22:45 33° W 22:22:45 33° W visible
23 Sep -3.9 21:32:47 10° WNW 21:36:09 89° S 21:36:35 66° ESE visible
24 Sep -3.7 20:44:46 10° WNW 20:48:08 75° NNE 20:50:23 19° E visible
24 Sep -1.5 22:21:41 10° W 22:23:18 23° W 22:23:18 23° W visible
25 Sep -3.3 21:33:32 10° WNW 21:36:48 49° SSW 21:37:06 47° S visible
